DW6352 Weather Reports


time (UTC)temp
F
wind
direction
speed
knots
gust
knots
rain 1hr
in
rain 24hr
in
rain mn
in
humidity
%
barometer
mb
20260503224510 69 242 3.5 12.2 0.00 0.00 0.00 24 1002.8
20260503223008 68 254 6.1 11.3 0.00 0.00 0.00 22 1002.8
20260503221507 68 250 7.0 15.6 0.00 0.00 0.00 24 1003.1
20260503220006 68 281 5.2 12.2 0.00 0.00 0.00 24 1003.2
20260503214503 68 261 7.0 13.9 0.00 0.00 0.00 24 1003.3
20260503213002 67 261 5.2 13.0 0.00 0.00 0.00 26 1003.5
20260503211620 67 312 5.2 12.2 0.00 0.00 0.00 24 1003.7
20260503210101 68 273 6.1 11.3 0.00 0.00 0.00 25 1003.9
20260503204559 68 306 8.7 13.9 0.00 0.00 0.00 23 1004.0
20260503203113 67 279 8.7 18.2 0.00 0.00 0.00 23 1004.1
20260503201557 67 300 8.7 16.5 0.00 0.00 0.00 23 1004.3
20260503200056 67 333 4.3 12.2 0.00 0.00 0.00 23 1004.3
20260503194557 66 342 6.1 11.3 0.00 0.00 0.00 23 1004.4
20260503193053 66 307 6.1 12.2 0.00 0.00 0.00 23 1004.7
20260503191551 66 10 7.0 18.2 0.00 0.00 0.00 23 1004.8
20260503190051 65 308 7.8 17.4 0.00 0.00 0.00 22 1005.1
20260503184551 65 25 8.7 18.2 0.00 0.00 0.00 20 1005.2
20260503183049 65 360 12.2 20.9 0.00 0.00 0.00 20 1005.3
20260503181559 66 349 9.6 19.1 0.00 0.00 0.00 25 1005.3
20260503180047 65 317 8.7 15.6 0.00 0.00 0.00 30 1005.3
20260503174544 64 316 7.8 14.8 0.00 0.00 0.00 30 1005.6
20260503173053 64 310 8.7 19.1 0.00 0.00 0.00 27 1005.6
20260503171540 64 329 9.6 17.4 0.00 0.00 0.00 27 1005.6
20260503081540 50 167 1.7 5.2 0.00 0.00 0.00 60 1004.3
20260503071531 52 55 3.5 6.1 0.00 0.00 0.00 55 1004.8
20260503054517 54 157 6.1 12.2 0.00 0.00 0.00 50 1005.6
20260503053013 54 175 6.1 13.0 0.00 0.00 0.00 51 1005.9
20260503051509 54 159 4.3 7.0 0.00 0.00 0.00 50 1006.0
20260503050006 55 165 2.6 6.1 0.00 0.00 0.00 50 1006.2
20260503044504 55 157 1.7 6.1 0.00 0.00 0.00 50 1006.4
20260503043002 56 127 2.6 7.0 0.00 0.00 0.00 50 1006.6
20260503041613 56 149 1.7 6.1 0.00 0.00 0.00 48 1006.9
20260503040106 56 131 1.7 5.2 0.00 0.00 0.00 48 1007.2
20260503034556 57 119 1.7 7.0 0.00 0.00 0.00 46 1007.4
20260503033107 57 134 2.6 6.1 0.00 0.00 0.00 46 1007.5
20260503031555 58 168 1.7 6.1 0.00 0.00 0.00 45 1007.9
20260503030052 59 169 2.6 6.1 0.00 0.00 0.00 43 1008.1
20260503024552 59 164 0.9 6.1 0.00 0.00 0.00 42 1008.5
20260503023057 60 175 2.6 6.1 0.00 0.00 0.00 40 1008.8
20260503021550 60 249 3.5 6.1 0.00 0.00 0.00 39 1008.9
20260503020045 61 246 5.2 10.4 0.00 0.00 0.00 38 1009.0
20260503014545 61 246 6.1 12.2 0.00 0.00 0.00 36 1008.9
20260503013045 61 273 7.0 13.9 0.00 0.00 0.00 37 1009.0
20260503011558 61 246 2.6 8.7 0.00 0.00 0.00 39 1009.0
20260503010052 61 219 1.7 3.5 0.00 0.00 0.00 39 1008.9
20260503004543 61 181 3.5 7.8 0.00 0.00 0.00 39 1008.9
20260503003057 61 201 3.5 6.1 0.00 0.00 0.00 39 1009.1
20260503001541 62 200 3.5 7.8 0.00 0.00 0.00 38 1009.1
20260503000057 62 238 4.3 8.7 0.00 0.00 0.00 36 1009.3
20260502234538 62 254 5.2 11.3 0.00 0.00 0.00 37 1009.6
20260502233038 63 223 8.7 17.4 0.00 0.00 0.00 36 1009.7
20260502231540 63 231 3.5 13.0 0.00 0.00 0.00 35 1009.8
20260502230033 63 202 8.7 13.9 0.00 0.00 0.00 34 1009.9